CZ-11 R/B, 43872

Orbit data source: Space-Track

CZ-11 R/B, 43872 is space debris in SSO originally from a launch on Fri, 21 Dec 2018 UTC launched from the Jiuquan Satellite Launch Center, China (JSC). Debris objects in space refer to the collection of defunct objects orbiting the Earth. Examples of debris include non-operational satellites, rocket bodies, and fragments generated from explosions, collisions, or faulty payload assembly.

Loading next visibility...
Identifier
43872, 2018-108B
Orbit
SSO
Country
Flag of CNCN / PRC
Related business
Manufacturer
CALT
Mission
Spacecraft
Bus & Motor
CZ-11-4, Unknown motor
Mass
500 kg wet, 500 kg dry
Launch date (UTC)
2018-12-21 (7 years ago)
Launch vehicle
Unknown
Launch site
Jiuquan Satellite Launch Center, China (JSC)
Object type
Payload
Rocket body
Debris
Shape & HBR
Cyl, 0.8 m
Radar Cross Section
2.651 m², Large (>1 m²)

Expand to show TLE details & history
Last TLE update: 8 hours ago

TLE from 8 hours ago
0 CZ-11 R/B
1 43872U 18108B   25308.51465410  .00000678  00000-0  30026-3 0  9991
2 43872 100.4026 339.3143 0331246 156.1950 205.4938 14.01779820351426
Epoch: 2025-11-04T12:21Z
TLE epoch observation values (Epoch: 2025-11-04T12:21:06.114Z)
Latitude
0.00008°
Longitude
110.03823°
Altitude
1,109.172 km
Speed
7.187 km/s
True Right ascension
22h 37m 15s
True Declination
0° 00' 00"
Sunlit
Object was in daylight at epoch
Visualization orbit readout
Latitude
Unknown
Longitude
Unknown
Altitude
Unknown
Speed
Unknown
Apparent Right ascension
Unknown
Apparent Declination
Unknown
Sunlit
N/A
Visualization observer readout
Local Sidereal Time
16:01:30
Azimuth
Unknown
Elevation
Unknown
Doppler factor
Unknown
Orbital elements
Apogee altitude
1,125.49 km
Perigee altitude
644.32 km
Semi-major axis
7,263.042 km
Eccentricity
0.03312
Inclination
100.4026°
RAAN
339.3143°
Arg. of periapsis
156.195°
True anomaly
203.91918°
Mean anomaly
205.4938°
Eccentric anomaly
204.70071°
Mean motion
3.50643 °/min
Orbital period
102.67 mins
BSTAR
0.00030026
Loading maneuver chart data...
Computing Atmospheric mass density...
Loading historical data...
Loading historical data...
Loading historical data...
Loading historical data...
Loading historical data...
Loading historical data...
Loading historical data...
Other satellites on launch #108 in the year 2018 (2018-12-21 UTC)

Documentation

Showing up to 5 results
|